Location: Hohe Wand Kleine Kanzel
(47.8330°N, 16.0170°E)
Time: 06:58:53
(UTC+02:00)

Transit 2A - All Passes

Search period start: 31 July 2021 00:00
Search period end: 10 August 2021 00:00
Orbit: 598 x 960 km, 66.7° (Epoch: 30 July)

Date Brightness Start Highest point End Pass type
(mag) Time Alt. Az. Time Alt. Az. Time Alt. Az.
31 Jul - 06:09:48 10° SE 06:11:55 13° ESE 06:14:04 10° ENE daylight
31 Jul - 07:49:52 10° SW 07:54:16 79° NW 07:59:01 10° NNE daylight
31 Jul - 09:35:11 10° WNW 09:38:18 18° NNW 09:41:35 10° NNE daylight
31 Jul - 13:07:01 10° N 13:09:21 13° NNE 13:11:46 10° NE daylight
31 Jul - 14:49:04 10° NNW 14:54:00 38° NE 14:59:24 10° ESE daylight
31 Jul - 16:32:06 10° NW 16:37:21 48° WSW 16:43:03 10° S daylight
01 Aug - 07:15:44 10° SSW 07:20:05 71° ESE 07:24:48 10° NE daylight
01 Aug - 09:00:15 10° W 09:03:48 22° NW 09:07:35 10° NNE daylight
01 Aug - 12:33:14 10° N 12:34:43 11° NNE 12:36:14 10° NE daylight
01 Aug - 14:15:00 10° NNW 14:19:38 30° NE 14:24:39 10° ESE daylight
01 Aug - 15:57:48 10° NW 16:03:12 66° WSW 16:09:07 10° SSE daylight
01 Aug - 17:43:46 10° W 17:45:35 11° WSW 17:47:26 10° WSW daylight
02 Aug - 06:41:46 10° S 06:45:58 47° ESE 06:50:29 10° NE daylight
02 Aug - 08:25:27 10° W 08:29:21 28° NW 08:33:33 10° NNE daylight
02 Aug - 10:13:29 10° NNW 10:14:18 10° NNW 10:15:09 10° N daylight
02 Aug - 13:40:57 10° NNW 13:45:11 24° NE 13:49:45 10° E daylight
02 Aug - 15:23:34 10° NW 15:29:01 88° SW 15:35:01 10° SSE daylight
02 Aug - 17:08:08 10° WNW 17:11:38 17° WSW 17:15:18 10° SW daylight
03 Aug - 06:08:01 10° S 06:11:55 32° ESE 06:16:04 10° NE daylight
03 Aug - 07:50:49 10° WSW 07:54:58 37° NW 07:59:29 10° NNE daylight
03 Aug - 09:37:49 10° NW 09:39:40 12° NNW 09:41:33 10° N daylight
03 Aug - 13:06:56 10° NNW 13:10:43 19° NNE 13:14:43 10° ENE daylight
03 Aug - 14:49:23 10° NNW 14:54:48 70° NE 15:00:45 10° SE daylight
03 Aug - 16:33:16 10° WNW 16:37:38 24° WSW 16:42:17 10° SSW daylight
04 Aug - 05:34:33 10° SSE 05:37:55 22° ESE 05:41:27 10° ENE daylight
04 Aug - 07:16:19 10° SW 07:20:39 52° NW 07:25:22 10° NNE daylight
04 Aug - 09:02:32 10° WNW 09:05:04 14° NNW 09:07:42 10° N daylight
04 Aug - 12:32:57 10° N 12:36:11 16° NNE 12:39:34 10° ENE daylight
04 Aug - 14:15:15 10° NNW 14:20:32 52° NE 14:26:19 10° SE daylight
04 Aug - 15:58:41 10° NW 16:03:36 33° WSW 16:08:53 10° S daylight
05 Aug - 05:01:33 10° SE 05:03:59 15° ESE 05:06:30 10° ENE visible
05 Aug - 06:41:58 10° SW 06:46:24 74° NW 06:51:12 10° NNE daylight
05 Aug - 08:27:25 10° WNW 08:30:29 17° NNW 08:33:45 10° NNE daylight
05 Aug - 11:59:01 10° N 12:01:36 14° NNE 12:04:17 10° NE daylight
05 Aug - 13:41:09 10° NNW 13:46:13 40° NE 13:51:44 10° ESE daylight
05 Aug - 15:24:15 10° NW 15:29:31 45° WSW 15:35:13 10° S daylight
06 Aug - 06:07:48 10° SSW 06:12:12 77° ESE 06:16:59 10° NE daylight
06 Aug - 07:52:28 10° W 07:55:59 21° NW 07:59:45 10° NNE daylight
06 Aug - 11:25:08 10° N 11:26:58 12° NNE 11:28:51 10° NE daylight
06 Aug - 13:07:04 10° NNW 13:11:51 31° NE 13:17:01 10° ESE daylight
06 Aug - 14:49:57 10° NW 14:55:23 62° WSW 15:01:20 10° SSE daylight
06 Aug - 16:36:22 10° W 16:37:43 11° WSW 16:39:03 10° WSW daylight
07 Aug - 05:33:48 10° SSW 05:38:04 52° ESE 05:42:41 10° NE daylight
07 Aug - 07:17:38 10° W 07:21:32 27° NW 07:25:43 10° NNE daylight
07 Aug - 09:05:43 10° NNW 09:06:32 10° NNW 09:07:24 10° N daylight
07 Aug - 10:51:30 10° N 10:52:18 10° NNE 10:53:07 10° NNE daylight
07 Aug - 12:33:01 10° NNW 12:37:25 25° NE 12:42:09 10° E daylight
07 Aug - 14:15:41 10° NW 14:21:13 84° SW 14:27:15 10° SSE daylight
07 Aug - 16:00:26 10° WNW 16:03:47 16° WSW 16:07:16 10° SW daylight
08 Aug - 05:00:01 10° S 05:04:00 35° ESE 05:08:17 10° NE visible
08 Aug - 06:42:58 10° WSW 06:47:08 36° NW 06:51:38 10° NNE daylight
08 Aug - 08:30:05 10° NW 08:31:54 12° NNW 08:33:46 10° N daylight
08 Aug - 11:59:00 10° NNW 12:02:57 20° NNE 12:07:09 10° E daylight
08 Aug - 13:41:30 10° NNW 13:47:00 74° NE 13:53:01 10° SE daylight
08 Aug - 15:25:30 10° WNW 15:29:48 23° WSW 15:34:20 10° SSW daylight
09 Aug - 04:26:29 10° SSE 04:30:01 24° ESE 04:33:44 10° ENE visible
09 Aug - 06:08:27 10° SW 06:12:48 49° NW 06:17:32 10° NNE daylight
09 Aug - 07:54:46 10° NW 07:57:17 14° NNW 07:59:53 10° N daylight
09 Aug - 11:24:59 10° N 11:28:25 17° NNE 11:32:02 10° ENE daylight
09 Aug - 13:07:21 10° NNW 13:12:44 55° NE 13:18:37 10° SE daylight
09 Aug - 14:50:52 10° NW 14:55:46 31° WSW 15:01:00 10° S daylight
